Location: Bannatyne
(13.0833°N, 59.5333°W)
Time: 02:21:33
(UTC+00:00)

Explorer 7 - Pass Details

Date: 31 January 2020
Orbit: 485 x 679 km, 50.3° (Epoch: 26 February)

Event Time Altitude Azimuth Distance (km) Brightness Sun altitude
Rises 07:18:17 0° 349° (N) 2,596 - -44.8°
Reaches altitude 10° 07:21:24 10° 17° (NNE) 1,747 - -44.1°
Maximum altitude 07:23:26 14° 48° (NE) 1,557 - -43.6°
Drops below altitude 10° 07:25:31 10° 79° (ENE) 1,802 - -43.1°
Exits shadow 07:27:31 - 98° (E) 2,326 10.7 -42.6°
Sets 07:28:49 0° 105° (ESE) 2,745 11.2 -42.3°
